owner,sensor,date,latitude,longitude,vertical_datum,wind_speed,wind_to_direction,wind_speed_of_gust,qcFlag 
COMPS,ioos:station:USF.COMPS:FHP:1,2017-09-01T00:00:00Z,28.1530,-82.8010,10.0,4.21,267.37,5.09,'1111122,1111122,1111122' 
COMPS,ioos:station:USF.COMPS:FHP:1,2017-09-01T00:06:00Z,28.1530,-82.8010,10.0,4.16,262.36,4.9,'1111122,1111122,1111122' 
COMPS,ioos:station:USF.COMPS:FHP:1,2017-09-01T00:12:00Z,28.1530,-82.8010,10.0,3.41,274.88,4.5,'1111122,1111122,1111122' 
COMPS,ioos:station:USF.COMPS:FHP:1,2017-09-01T00:18:00Z,28.1530,-82.8010,10.0,2.84,280.12,3.82,'1111122,1111122,1111122' 
COMPS,ioos:station:USF.COMPS:FHP:1,2017-09-01T00:24:00Z,28.1530,-82.8010,10.0,3.08,283.18,3.91,'1111122,1111122,1111122' 
COMPS,ioos:station:USF.COMPS:FHP:1,2017-09-01T00:30:00Z,28.1530,-82.8010,10.0,3.56,280.73,4.31,'1111122,1111122,1111122' 
COMPS,ioos:station:USF.COMPS:FHP:1,2017-09-01T00:36:00Z,28.1530,-82.8010,10.0,3.51,287.11,4.8,'1111122,1111122,1111122' 
COMPS,ioos:station:USF.COMPS:FHP:1,2017-09-01T00:42:00Z,28.1530,-82.8010,10.0,3.45,286.3,4.6,'1111122,1111122,1111122' 
COMPS,ioos:station:USF.COMPS:FHP:1,2017-09-01T00:48:00Z,28.1530,-82.8010,10.0,3.76,283.03,4.5,'1111122,1111122,1111122' 
COMPS,ioos:station:USF.COMPS:FHP:1,2017-09-01T00:54:00Z,28.1530,-82.8010,10.0,3.6,292.28,4.7,'1111122,1111122,1111122' 
COMPS,ioos:station:USF.COMPS:FHP:1,2017-09-01T01:00:00Z,28.1530,-82.8010,10.0,3.54,292.77,4.7,'1111122,1111122,1111122' 
COMPS,ioos:station:USF.COMPS:FHP:1,2017-09-01T01:06:00Z,28.1530,-82.8010,10.0,3.59,303.18,4.5,'1111122,1111122,1111122' 
COMPS,ioos:station:USF.COMPS:FHP:1,2017-09-01T01:12:00Z,28.1530,-82.8010,10.0,3.55,301.71,4.6,'1111122,1111122,1111122' 
COMPS,ioos:station:USF.COMPS:FHP:1,2017-09-01T01:18:00Z,28.1530,-82.8010,10.0,3.77,302.26,5.09,'1111122,1111122,1111122' 
COMPS,ioos:station:USF.COMPS:FHP:1,2017-09-01T01:24:00Z,28.1530,-82.8010,10.0,4.09,301.7,4.8,'1111122,1111122,1111122' 
COMPS,ioos:station:USF.COMPS:FHP:1,2017-09-01T01:30:00Z,28.1530,-82.8010,10.0,3.2,309.13,4.41,'1111122,1111122,1111122' 
COMPS,ioos:station:USF.COMPS:FHP:1,2017-09-01T01:36:00Z,28.1530,-82.8010,10.0,2.64,316.82,3.52,'1111122,1111122,1111122' 
COMPS,ioos:station:USF.COMPS:FHP:1,2017-09-01T01:42:00Z,28.1530,-82.8010,10.0,2.42,327.97,3.23,'1111122,1111122,1111122' 
COMPS,ioos:station:USF.COMPS:FHP:1,2017-09-01T01:48:00Z,28.1530,-82.8010,10.0,2.79,326.99,3.62,'1111122,1111122,1111122' 
COMPS,ioos:station:USF.COMPS:FHP:1,2017-09-01T01:54:00Z,28.1530,-82.8010,10.0,3.23,324.13,3.72,'1111122,1111122,1111122' 
COMPS,ioos:station:USF.COMPS:FHP:1,2017-09-01T02:00:00Z,28.1530,-82.8010,10.0,2.61,313.76,3.23,'1111122,1111122,1111122' 
COMPS,ioos:station:USF.COMPS:FHP:1,2017-09-01T02:06:00Z,28.1530,-82.8010,10.0,2.45,314.35,3.13,'1111122,1111122,1111122' 
COMPS,ioos:station:USF.COMPS:FHP:1,2017-09-01T02:12:00Z,28.1530,-82.8010,10.0,2.13,323.9,2.74,'1111122,1111122,1111122' 
COMPS,ioos:station:USF.COMPS:FHP:1,2017-09-01T02:18:00Z,28.1530,-82.8010,10.0,1.75,324.86,2.35,'1111122,1111122,1111122' 
COMPS,ioos:station:USF.COMPS:FHP:1,2017-09-01T02:24:00Z,28.1530,-82.8010,10.0,1.69,336.42,2.35,'1111122,1111122,1111122' 
COMPS,ioos:station:USF.COMPS:FHP:1,2017-09-01T02:30:00Z,28.1530,-82.8010,10.0,1.47,327.25,2.15,'1111122,1111122,1111122' 
COMPS,ioos:station:USF.COMPS:FHP:1,2017-09-01T02:36:00Z,28.1530,-82.8010,10.0,1.91,318.97,2.54,'1111122,1111122,1111122' 
COMPS,ioos:station:USF.COMPS:FHP:1,2017-09-01T02:42:00Z,28.1530,-82.8010,10.0,1.69,302.72,2.35,'1111122,1111122,1111122' 
COMPS,ioos:station:USF.COMPS:FHP:1,2017-09-01T02:48:00Z,28.1530,-82.8010,10.0,1.62,314.29,2.45,'1111122,1111122,1111122' 
COMPS,ioos:station:USF.COMPS:FHP:1,2017-09-01T02:54:00Z,28.1530,-82.8010,10.0,1.99,320.52,3.03,'1111122,1111122,1111122' 
COMPS,ioos:station:USF.COMPS:FHP:1,2017-09-01T03:00:00Z,28.1530,-82.8010,10.0,1.43,314.73,2.25,'1111122,1111122,1111122' 
COMPS,ioos:station:USF.COMPS:FHP:1,2017-09-01T03:06:00Z,28.1530,-82.8010,10.0,0.75,336.88,2.35,'1111122,1111122,1111122' 
COMPS,ioos:station:USF.COMPS:FHP:1,2017-09-01T03:12:00Z,28.1530,-82.8010,10.0,2.96,114.73,3.52,'1111122,1111122,1111122' 
COMPS,ioos:station:USF.COMPS:FHP:1,2017-09-01T03:18:00Z,28.1530,-82.8010,10.0,2.25,120.6,2.93,'1111122,1111122,1111122' 
COMPS,ioos:station:USF.COMPS:FHP:1,2017-09-01T03:24:00Z,28.1530,-82.8010,10.0,1.66,114.08,2.45,'1111122,1111122,1111122' 
COMPS,ioos:station:USF.COMPS:FHP:1,2017-09-01T03:30:00Z,28.1530,-82.8010,10.0,1.17,108.15,1.66,'1111122,1111122,1111122' 
COMPS,ioos:station:USF.COMPS:FHP:1,2017-09-01T03:36:00Z,28.1530,-82.8010,10.0,1.05,124.41,1.27,'1111122,1111122,1111122' 
COMPS,ioos:station:USF.COMPS:FHP:1,2017-09-01T03:42:00Z,28.1530,-82.8010,10.0,0.58,153.42,1.07,'1111122,1111122,1111122' 
COMPS,ioos:station:USF.COMPS:FHP:1,2017-09-01T03:48:00Z,28.1530,-82.8010,10.0,0.47,166.35,0.78,'1111122,1111122,1111122' 
COMPS,ioos:station:USF.COMPS:FHP:1,2017-09-01T03:54:00Z,28.1530,-82.8010,10.0,0.69,120.19,1.46,'1111122,1111122,1111122' 
COMPS,ioos:station:USF.COMPS:FHP:1,2017-09-01T04:00:00Z,28.1530,-82.8010,10.0,2.46,87.52,3.42,'1111122,1111122,1111122' 
COMPS,ioos:station:USF.COMPS:FHP:1,2017-09-01T04:06:00Z,28.1530,-82.8010,10.0,1.44,98.75,1.86,'1111122,1111122,1111122' 
COMPS,ioos:station:USF.COMPS:FHP:1,2017-09-01T04:12:00Z,28.1530,-82.8010,10.0,2.12,105.56,2.84,'1111122,1111122,1111122' 
COMPS,ioos:station:USF.COMPS:FHP:1,2017-09-01T04:18:00Z,28.1530,-82.8010,10.0,2.73,106.93,3.23,'1111122,1111122,1111122' 
COMPS,ioos:station:USF.COMPS:FHP:1,2017-09-01T04:24:00Z,28.1530,-82.8010,10.0,3.25,111.75,4.01,'1111122,1111122,1111122' 
COMPS,ioos:station:USF.COMPS:FHP:1,2017-09-01T04:30:00Z,28.1530,-82.8010,10.0,3.51,108.38,4.5,'1111122,1111122,1111122' 
COMPS,ioos:station:USF.COMPS:FHP:1,2017-09-01T04:36:00Z,28.1530,-82.8010,10.0,2.89,107.95,3.52,'1111122,1111122,1111122' 
COMPS,ioos:station:USF.COMPS:FHP:1,2017-09-01T04:42:00Z,28.1530,-82.8010,10.0,2.88,107.41,3.62,'1111122,1111122,1111122' 
COMPS,ioos:station:USF.COMPS:FHP:1,2017-09-01T04:48:00Z,28.1530,-82.8010,10.0,2.73,117.54,3.33,'1111122,1111122,1111122' 
COMPS,ioos:station:USF.COMPS:FHP:1,2017-09-01T04:54:00Z,28.1530,-82.8010,10.0,2.76,129.69,3.33,'1111122,1111122,1111122' 
COMPS,ioos:station:USF.COMPS:FHP:1,2017-09-01T05:00:00Z,28.1530,-82.8010,10.0,2.97,136.05,3.91,'1111122,1111122,1111122' 
COMPS,ioos:station:USF.COMPS:FHP:1,2017-09-01T05:06:00Z,28.1530,-82.8010,10.0,4.18,126.98,4.9,'1111122,1111122,1111122' 
COMPS,ioos:station:USF.COMPS:FHP:1,2017-09-01T05:12:00Z,28.1530,-82.8010,10.0,3.95,115.14,4.6,'1111122,1111122,1111122' 
COMPS,ioos:station:USF.COMPS:FHP:1,2017-09-01T05:18:00Z,28.1530,-82.8010,10.0,4.18,109.08,4.8,'1111122,1111122,1111122' 
COMPS,ioos:station:USF.COMPS:FHP:1,2017-09-01T05:24:00Z,28.1530,-82.8010,10.0,3.93,117.0,4.9,'1111122,1111122,1111122' 
COMPS,ioos:station:USF.COMPS:FHP:1,2017-09-01T05:30:00Z,28.1530,-82.8010,10.0,3.63,116.97,4.31,'1111122,1111122,1111122' 
COMPS,ioos:station:USF.COMPS:FHP:1,2017-09-01T05:36:00Z,28.1530,-82.8010,10.0,4.04,113.02,4.9,'1111122,1111122,1111122' 
COMPS,ioos:station:USF.COMPS:FHP:1,2017-09-01T05:42:00Z,28.1530,-82.8010,10.0,4.81,108.6,5.68,'1111122,1111122,1111122' 
COMPS,ioos:station:USF.COMPS:FHP:1,2017-09-01T05:48:00Z,28.1530,-82.8010,10.0,4.09,103.74,4.9,'1111122,1111122,1111122' 
COMPS,ioos:station:USF.COMPS:FHP:1,2017-09-01T05:54:00Z,28.1530,-82.8010,10.0,4.1,105.26,5.09,'1111122,1111122,1111122' 
COMPS,ioos:station:USF.COMPS:FHP:1,2017-09-01T06:00:00Z,28.1530,-82.8010,10.0,4.35,106.97,5.48,'1111122,1111122,1111122' 
COMPS,ioos:station:USF.COMPS:FHP:1,2017-09-01T06:06:00Z,28.1530,-82.8010,10.0,4.35,106.97,5.48,'1111122,1111122,1111122' 
COMPS,ioos:station:USF.COMPS:FHP:1,2017-09-01T06:12:00Z,28.1530,-82.8010,10.0,4.19,113.72,5.09,'1111122,1111122,1111122' 
COMPS,ioos:station:USF.COMPS:FHP:1,2017-09-01T06:18:00Z,28.1530,-82.8010,10.0,3.62,114.52,4.8,'1111122,1111122,1111122' 
COMPS,ioos:station:USF.COMPS:FHP:1,2017-09-01T06:24:00Z,28.1530,-82.8010,10.0,3.43,114.47,4.41,'1111122,1111122,1111122' 
COMPS,ioos:station:USF.COMPS:FHP:1,2017-09-01T06:30:00Z,28.1530,-82.8010,10.0,3.17,118.06,3.82,'1111122,1111122,1111122' 
COMPS,ioos:station:USF.COMPS:FHP:1,2017-09-01T06:36:00Z,28.1530,-82.8010,10.0,3.33,123.49,4.41,'1111122,1111122,1111122' 
COMPS,ioos:station:USF.COMPS:FHP:1,2017-09-01T06:42:00Z,28.1530,-82.8010,10.0,3.25,124.04,3.91,'1111122,1111122,1111122' 
COMPS,ioos:station:USF.COMPS:FHP:1,2017-09-01T06:48:00Z,28.1530,-82.8010,10.0,2.84,122.12,3.62,'1111122,1111122,1111122' 
COMPS,ioos:station:USF.COMPS:FHP:1,2017-09-01T06:54:00Z,28.1530,-82.8010,10.0,2.91,118.21,3.62,'1111122,1111122,1111122' 
COMPS,ioos:station:USF.COMPS:FHP:1,2017-09-01T07:00:00Z,28.1530,-82.8010,10.0,2.75,114.76,3.23,'1111122,1111122,1111122' 
COMPS,ioos:station:USF.COMPS:FHP:1,2017-09-01T07:06:00Z,28.1530,-82.8010,10.0,3.08,117.62,4.01,'1111122,1111122,1111122' 
COMPS,ioos:station:USF.COMPS:FHP:1,2017-09-01T07:12:00Z,28.1530,-82.8010,10.0,3.6,114.11,4.21,'1111122,1111122,1111122' 
COMPS,ioos:station:USF.COMPS:FHP:1,2017-09-01T07:18:00Z,28.1530,-82.8010,10.0,3.92,113.14,4.5,'1111122,1111122,1111122' 
COMPS,ioos:station:USF.COMPS:FHP:1,2017-09-01T07:24:00Z,28.1530,-82.8010,10.0,3.81,109.81,4.8,'1111122,1111122,1111122' 
COMPS,ioos:station:USF.COMPS:FHP:1,2017-09-01T07:30:00Z,28.1530,-82.8010,10.0,4.08,117.92,4.8,'1111122,1111122,1111122' 
COMPS,ioos:station:USF.COMPS:FHP:1,2017-09-01T07:36:00Z,28.1530,-82.8010,10.0,4.11,120.96,4.7,'1111122,1111122,1111122' 
COMPS,ioos:station:USF.COMPS:FHP:1,2017-09-01T07:42:00Z,28.1530,-82.8010,10.0,3.54,118.51,4.41,'1111122,1111122,1111122' 
COMPS,ioos:station:USF.COMPS:FHP:1,2017-09-01T07:48:00Z,28.1530,-82.8010,10.0,3.06,117.85,3.72,'1111122,1111122,1111122' 
COMPS,ioos:station:USF.COMPS:FHP:1,2017-09-01T07:54:00Z,28.1530,-82.8010,10.0,3.05,115.78,4.11,'1111122,1111122,1111122' 
COMPS,ioos:station:USF.COMPS:FHP:1,2017-09-01T08:00:00Z,28.1530,-82.8010,10.0,3.32,110.87,4.11,'1111122,1111122,1111122' 
COMPS,ioos:station:USF.COMPS:FHP:1,2017-09-01T08:06:00Z,28.1530,-82.8010,10.0,3.01,118.59,3.82,'1111122,1111122,1111122' 
COMPS,ioos:station:USF.COMPS:FHP:1,2017-09-01T08:12:00Z,28.1530,-82.8010,10.0,3.58,123.19,4.41,'1111122,1111122,1111122' 
COMPS,ioos:station:USF.COMPS:FHP:1,2017-09-01T08:18:00Z,28.1530,-82.8010,10.0,4.02,119.02,4.6,'1111122,1111122,1111122' 
COMPS,ioos:station:USF.COMPS:FHP:1,2017-09-01T08:24:00Z,28.1530,-82.8010,10.0,4.08,116.34,4.9,'1111122,1111122,1111122' 
COMPS,ioos:station:USF.COMPS:FHP:1,2017-09-01T08:30:00Z,28.1530,-82.8010,10.0,3.63,112.87,4.6,'1111122,1111122,1111122' 
COMPS,ioos:station:USF.COMPS:FHP:1,2017-09-01T08:36:00Z,28.1530,-82.8010,10.0,3.31,117.64,4.5,'1111122,1111122,1111122' 
COMPS,ioos:station:USF.COMPS:FHP:1,2017-09-01T08:42:00Z,28.1530,-82.8010,10.0,4.06,127.35,4.99,'1111122,1111122,1111122' 
COMPS,ioos:station:USF.COMPS:FHP:1,2017-09-01T08:48:00Z,28.1530,-82.8010,10.0,3.65,125.44,4.41,'1111122,1111122,1111122' 
COMPS,ioos:station:USF.COMPS:FHP:1,2017-09-01T08:54:00Z,28.1530,-82.8010,10.0,3.46,126.02,4.41,'1111122,1111122,1111122' 
COMPS,ioos:station:USF.COMPS:FHP:1,2017-09-01T09:00:00Z,28.1530,-82.8010,10.0,4.18,128.96,4.8,'1111122,1111122,1111122' 
COMPS,ioos:station:USF.COMPS:FHP:1,2017-09-01T09:06:00Z,28.1530,-82.8010,10.0,4.38,123.09,4.99,'1111122,1111122,1111122' 
COMPS,ioos:station:USF.COMPS:FHP:1,2017-09-01T09:12:00Z,28.1530,-82.8010,10.0,3.53,122.78,4.31,'1111122,1111122,1111122' 
COMPS,ioos:station:USF.COMPS:FHP:1,2017-09-01T09:18:00Z,28.1530,-82.8010,10.0,2.8,122.42,3.82,'1111122,1111122,1111122' 
COMPS,ioos:station:USF.COMPS:FHP:1,2017-09-01T09:24:00Z,28.1530,-82.8010,10.0,2.74,103.72,4.41,'1111122,1111122,1111122' 
COMPS,ioos:station:USF.COMPS:FHP:1,2017-09-01T09:30:00Z,28.1530,-82.8010,10.0,2.33,91.94,3.42,'1111122,1111122,1111122' 
COMPS,ioos:station:USF.COMPS:FHP:1,2017-09-01T09:36:00Z,28.1530,-82.8010,10.0,1.54,108.12,2.35,'1111122,1111122,1111122' 
COMPS,ioos:station:USF.COMPS:FHP:1,2017-09-01T09:42:00Z,28.1530,-82.8010,10.0,1.64,124.21,2.45,'1111122,1111122,1111122' 
COMPS,ioos:station:USF.COMPS:FHP:1,2017-09-01T09:48:00Z,28.1530,-82.8010,10.0,1.36,140.71,2.15,'1111122,1111122,1111122' 
COMPS,ioos:station:USF.COMPS:FHP:1,2017-09-01T09:54:00Z,28.1530,-82.8010,10.0,1.5,123.17,2.15,'1111122,1111122,1111122' 
COMPS,ioos:station:USF.COMPS:FHP:1,2017-09-01T10:00:00Z,28.1530,-82.8010,10.0,1.16,132.81,2.25,'1111122,1111122,1111122' 
COMPS,ioos:station:USF.COMPS:FHP:1,2017-09-01T10:06:00Z,28.1530,-82.8010,10.0,1.84,118.02,2.45,'1111122,1111122,1111122' 
COMPS,ioos:station:USF.COMPS:FHP:1,2017-09-01T10:12:00Z,28.1530,-82.8010,10.0,2.65,136.91,3.23,'1111122,1111122,1111122' 
COMPS,ioos:station:USF.COMPS:FHP:1,2017-09-01T10:18:00Z,28.1530,-82.8010,10.0,3.19,136.14,3.91,'1111122,1111122,1111122' 
COMPS,ioos:station:USF.COMPS:FHP:1,2017-09-01T10:24:00Z,28.1530,-82.8010,10.0,3.11,139.45,3.52,'1111122,1111122,1111122' 
COMPS,ioos:station:USF.COMPS:FHP:1,2017-09-01T10:30:00Z,28.1530,-82.8010,10.0,3.0,143.39,3.91,'1111122,1111122,1111122' 
COMPS,ioos:station:USF.COMPS:FHP:1,2017-09-01T10:36:00Z,28.1530,-82.8010,10.0,3.68,145.81,4.21,'1111122,1111122,1111122' 
COMPS,ioos:station:USF.COMPS:FHP:1,2017-09-01T10:42:00Z,28.1530,-82.8010,10.0,4.17,153.99,4.7,'1111122,1111122,1111122' 
COMPS,ioos:station:USF.COMPS:FHP:1,2017-09-01T10:48:00Z,28.1530,-82.8010,10.0,4.28,157.17,4.99,'1111122,1111122,1111122' 
COMPS,ioos:station:USF.COMPS:FHP:1,2017-09-01T10:54:00Z,28.1530,-82.8010,10.0,4.26,155.03,5.29,'1111122,1111122,1111122' 
COMPS,ioos:station:USF.COMPS:FHP:1,2017-09-01T11:00:00Z,28.1530,-82.8010,10.0,4.48,154.55,5.19,'1111122,1111122,1111122' 
COMPS,ioos:station:USF.COMPS:FHP:1,2017-09-01T11:06:00Z,28.1530,-82.8010,10.0,3.83,145.31,4.6,'1111122,1111122,1111122' 
COMPS,ioos:station:USF.COMPS:FHP:1,2017-09-01T11:12:00Z,28.1530,-82.8010,10.0,2.59,139.63,4.41,'1111122,1111122,1111122' 
COMPS,ioos:station:USF.COMPS:FHP:1,2017-09-01T11:18:00Z,28.1530,-82.8010,10.0,2.47,136.95,3.42,'1111122,1111122,1111122' 
COMPS,ioos:station:USF.COMPS:FHP:1,2017-09-01T11:24:00Z,28.1530,-82.8010,10.0,2.54,142.02,3.42,'1111122,1111122,1111122' 
COMPS,ioos:station:USF.COMPS:FHP:1,2017-09-01T11:30:00Z,28.1530,-82.8010,10.0,2.28,135.9,3.13,'1111122,1111122,1111122' 
COMPS,ioos:station:USF.COMPS:FHP:1,2017-09-01T11:36:00Z,28.1530,-82.8010,10.0,2.49,127.22,2.93,'1111122,1111122,1111122' 
COMPS,ioos:station:USF.COMPS:FHP:1,2017-09-01T11:42:00Z,28.1530,-82.8010,10.0,2.91,125.98,3.33,'1111122,1111122,1111122' 
COMPS,ioos:station:USF.COMPS:FHP:1,2017-09-01T11:48:00Z,28.1530,-82.8010,10.0,2.83,124.04,3.42,'1111122,1111122,1111122' 
COMPS,ioos:station:USF.COMPS:FHP:1,2017-09-01T11:54:00Z,28.1530,-82.8010,10.0,2.96,133.74,3.62,'1111122,1111122,1111122' 
COMPS,ioos:station:USF.COMPS:FHP:1,2017-09-01T12:00:00Z,28.1530,-82.8010,10.0,1.96,152.15,3.23,'1111122,1111122,1111122' 
COMPS,ioos:station:USF.COMPS:FHP:1,2017-09-01T12:06:00Z,28.1530,-82.8010,10.0,1.48,154.21,1.86,'1111122,1111122,1111122' 
COMPS,ioos:station:USF.COMPS:FHP:1,2017-09-01T12:12:00Z,28.1530,-82.8010,10.0,1.63,137.75,2.35,'1111122,1111122,1111122' 
COMPS,ioos:station:USF.COMPS:FHP:1,2017-09-01T12:18:00Z,28.1530,-82.8010,10.0,2.23,135.93,2.84,'1111122,1111122,1111122' 
COMPS,ioos:station:USF.COMPS:FHP:1,2017-09-01T12:24:00Z,28.1530,-82.8010,10.0,2.15,130.3,2.74,'1111122,1111122,1111122' 
COMPS,ioos:station:USF.COMPS:FHP:1,2017-09-01T12:30:00Z,28.1530,-82.8010,10.0,1.81,127.04,2.54,'1111122,1111122,1111122' 
COMPS,ioos:station:USF.COMPS:FHP:1,2017-09-01T12:36:00Z,28.1530,-82.8010,10.0,1.98,141.37,3.03,'1111122,1111122,1111122' 
COMPS,ioos:station:USF.COMPS:FHP:1,2017-09-01T12:42:00Z,28.1530,-82.8010,10.0,2.07,141.72,3.23,'1111122,1111122,1111122' 
COMPS,ioos:station:USF.COMPS:FHP:1,2017-09-01T12:48:00Z,28.1530,-82.8010,10.0,1.85,130.33,2.74,'1111122,1111122,1111122' 
COMPS,ioos:station:USF.COMPS:FHP:1,2017-09-01T12:54:00Z,28.1530,-82.8010,10.0,1.55,124.44,2.45,'1111122,1111122,1111122' 
COMPS,ioos:station:USF.COMPS:FHP:1,2017-09-01T13:00:00Z,28.1530,-82.8010,10.0,1.98,130.53,3.03,'1111122,1111122,1111122' 
COMPS,ioos:station:USF.COMPS:FHP:1,2017-09-01T13:06:00Z,28.1530,-82.8010,10.0,2.83,149.1,4.01,'1111122,1111122,1111122' 
COMPS,ioos:station:USF.COMPS:FHP:1,2017-09-01T13:12:00Z,28.1530,-82.8010,10.0,3.91,151.98,5.29,'1111122,1111122,1111122' 
COMPS,ioos:station:USF.COMPS:FHP:1,2017-09-01T13:18:00Z,28.1530,-82.8010,10.0,4.5,150.08,5.48,'1111122,1111122,1111122' 
COMPS,ioos:station:USF.COMPS:FHP:1,2017-09-01T13:24:00Z,28.1530,-82.8010,10.0,3.59,154.09,4.7,'1111122,1111122,1111122' 
COMPS,ioos:station:USF.COMPS:FHP:1,2017-09-01T13:30:00Z,28.1530,-82.8010,10.0,4.24,168.95,4.99,'1111122,1111122,1111122' 
COMPS,ioos:station:USF.COMPS:FHP:1,2017-09-01T13:36:00Z,28.1530,-82.8010,10.0,4.64,168.0,5.78,'1111122,1111122,1111122' 
COMPS,ioos:station:USF.COMPS:FHP:1,2017-09-01T13:42:00Z,28.1530,-82.8010,10.0,3.98,176.31,4.99,'1111122,1111122,1111122' 
COMPS,ioos:station:USF.COMPS:FHP:1,2017-09-01T13:48:00Z,28.1530,-82.8010,10.0,3.38,182.16,4.31,'1111122,1111122,1111122' 
COMPS,ioos:station:USF.COMPS:FHP:1,2017-09-01T13:54:00Z,28.1530,-82.8010,10.0,3.77,184.24,4.6,'1111122,1111122,1111122' 
COMPS,ioos:station:USF.COMPS:FHP:1,2017-09-01T14:00:00Z,28.1530,-82.8010,10.0,3.95,183.35,4.8,'1111122,1111122,1111122' 
COMPS,ioos:station:USF.COMPS:FHP:1,2017-09-01T14:06:00Z,28.1530,-82.8010,10.0,3.96,188.6,4.9,'1111122,1111122,1111122' 
COMPS,ioos:station:USF.COMPS:FHP:1,2017-09-01T14:12:00Z,28.1530,-82.8010,10.0,4.29,182.65,4.8,'1111122,1111122,1111122' 
COMPS,ioos:station:USF.COMPS:FHP:1,2017-09-01T14:18:00Z,28.1530,-82.8010,10.0,4.4,177.73,4.99,'1111122,1111122,1111122' 
COMPS,ioos:station:USF.COMPS:FHP:1,2017-09-01T14:24:00Z,28.1530,-82.8010,10.0,4.8,179.14,6.17,'1111122,1111122,1111122' 
COMPS,ioos:station:USF.COMPS:FHP:1,2017-09-01T14:30:00Z,28.1530,-82.8010,10.0,4.11,174.29,5.19,'1111122,1111122,1111122' 
COMPS,ioos:station:USF.COMPS:FHP:1,2017-09-01T14:36:00Z,28.1530,-82.8010,10.0,4.25,185.66,5.29,'1111122,1111122,1111122' 
COMPS,ioos:station:USF.COMPS:FHP:1,2017-09-01T14:42:00Z,28.1530,-82.8010,10.0,4.43,194.82,4.99,'1111122,1111122,1111122' 
COMPS,ioos:station:USF.COMPS:FHP:1,2017-09-01T14:48:00Z,28.1530,-82.8010,10.0,4.45,200.74,5.19,'1111122,1111122,1111122' 
COMPS,ioos:station:USF.COMPS:FHP:1,2017-09-01T14:54:00Z,28.1530,-82.8010,10.0,4.19,192.47,4.99,'1111122,1111122,1111122' 
COMPS,ioos:station:USF.COMPS:FHP:1,2017-09-01T15:00:00Z,28.1530,-82.8010,10.0,4.67,190.47,5.78,'1111122,1111122,1111122' 
COMPS,ioos:station:USF.COMPS:FHP:1,2017-09-01T15:06:00Z,28.1530,-82.8010,10.0,4.37,201.78,4.99,'1111122,1111122,1111122' 
COMPS,ioos:station:USF.COMPS:FHP:1,2017-09-01T15:12:00Z,28.1530,-82.8010,10.0,3.91,210.06,4.5,'1111122,1111122,1111122' 
COMPS,ioos:station:USF.COMPS:FHP:1,2017-09-01T15:18:00Z,28.1530,-82.8010,10.0,4.02,215.83,4.9,'1111122,1111122,1111122' 
COMPS,ioos:station:USF.COMPS:FHP:1,2017-09-01T15:24:00Z,28.1530,-82.8010,10.0,3.87,213.04,4.6,'1111122,1111122,1111122' 
COMPS,ioos:station:USF.COMPS:FHP:1,2017-09-01T15:30:00Z,28.1530,-82.8010,10.0,4.22,216.94,4.8,'1111122,1111122,1111122' 
COMPS,ioos:station:USF.COMPS:FHP:1,2017-09-01T15:36:00Z,28.1530,-82.8010,10.0,3.93,215.44,4.8,'1111122,1111122,1111122' 
COMPS,ioos:station:USF.COMPS:FHP:1,2017-09-01T15:42:00Z,28.1530,-82.8010,10.0,4.02,222.27,4.6,'1111122,1111122,1111122' 
COMPS,ioos:station:USF.COMPS:FHP:1,2017-09-01T15:48:00Z,28.1530,-82.8010,10.0,3.48,236.05,4.41,'1111122,1111122,1111122' 
COMPS,ioos:station:USF.COMPS:FHP:1,2017-09-01T15:54:00Z,28.1530,-82.8010,10.0,3.47,242.83,4.11,'1111122,1111122,1111122' 
COMPS,ioos:station:USF.COMPS:FHP:1,2017-09-01T16:00:00Z,28.1530,-82.8010,10.0,3.51,242.32,4.01,'1111122,1111122,1111122' 
COMPS,ioos:station:USF.COMPS:FHP:1,2017-09-01T16:06:00Z,28.1530,-82.8010,10.0,3.54,244.45,4.31,'1111122,1111122,1111122' 
COMPS,ioos:station:USF.COMPS:FHP:1,2017-09-01T16:12:00Z,28.1530,-82.8010,10.0,3.89,257.85,4.41,'1111122,1111122,1111122' 
COMPS,ioos:station:USF.COMPS:FHP:1,2017-09-01T16:18:00Z,28.1530,-82.8010,10.0,4.14,258.59,5.09,'1111122,1111122,1111122' 
COMPS,ioos:station:USF.COMPS:FHP:1,2017-09-01T16:24:00Z,28.1530,-82.8010,10.0,4.88,254.43,5.68,'1111122,1111122,1111122' 
COMPS,ioos:station:USF.COMPS:FHP:1,2017-09-01T16:30:00Z,28.1530,-82.8010,10.0,5.04,242.89,5.78,'1111122,1111122,1111122' 
COMPS,ioos:station:USF.COMPS:FHP:1,2017-09-01T16:36:00Z,28.1530,-82.8010,10.0,5.27,256.28,5.87,'1111122,1111122,1111122' 
COMPS,ioos:station:USF.COMPS:FHP:1,2017-09-01T16:42:00Z,28.1530,-82.8010,10.0,5.21,255.14,5.78,'1111122,1111122,1111122' 
COMPS,ioos:station:USF.COMPS:FHP:1,2017-09-01T16:48:00Z,28.1530,-82.8010,10.0,5.41,255.82,6.07,'1111122,1111122,1111122' 
COMPS,ioos:station:USF.COMPS:FHP:1,2017-09-01T16:54:00Z,28.1530,-82.8010,10.0,5.85,257.59,6.66,'1111122,1111122,1111122' 
COMPS,ioos:station:USF.COMPS:FHP:1,2017-09-01T17:00:00Z,28.1530,-82.8010,10.0,5.61,246.59,6.37,'1111122,1111122,1111122' 
COMPS,ioos:station:USF.COMPS:FHP:1,2017-09-01T17:06:00Z,28.1530,-82.8010,10.0,6.19,250.97,6.85,'1111122,1111122,1111122' 
COMPS,ioos:station:USF.COMPS:FHP:1,2017-09-01T17:12:00Z,28.1530,-82.8010,10.0,6.26,251.8,7.35,'1111122,1111122,1111122' 
COMPS,ioos:station:USF.COMPS:FHP:1,2017-09-01T17:18:00Z,28.1530,-82.8010,10.0,6.18,251.03,6.85,'1111122,1111122,1111122' 
COMPS,ioos:station:USF.COMPS:FHP:1,2017-09-01T17:24:00Z,28.1530,-82.8010,10.0,6.41,246.8,7.35,'1111122,1111122,1111122' 
COMPS,ioos:station:USF.COMPS:FHP:1,2017-09-01T17:30:00Z,28.1530,-82.8010,10.0,6.42,241.71,7.54,'1111122,1111122,1111122' 
COMPS,ioos:station:USF.COMPS:FHP:1,2017-09-01T17:36:00Z,28.1530,-82.8010,10.0,5.93,237.47,6.66,'1111122,1111122,1111122' 
COMPS,ioos:station:USF.COMPS:FHP:1,2017-09-01T17:42:00Z,28.1530,-82.8010,10.0,6.12,240.75,6.76,'1111122,1111122,1111122' 
COMPS,ioos:station:USF.COMPS:FHP:1,2017-09-01T17:48:00Z,28.1530,-82.8010,10.0,6.25,249.93,7.25,'1111122,1111122,1111122' 
COMPS,ioos:station:USF.COMPS:FHP:1,2017-09-01T17:54:00Z,28.1530,-82.8010,10.0,6.81,249.11,7.54,'1111122,1111122,1111122' 
COMPS,ioos:station:USF.COMPS:FHP:1,2017-09-01T18:00:00Z,28.1530,-82.8010,10.0,6.31,245.3,7.44,'1111122,1111122,1111122' 
COMPS,ioos:station:USF.COMPS:FHP:1,2017-09-01T18:06:00Z,28.1530,-82.8010,10.0,6.25,242.55,7.05,'1111122,1111122,1111122' 
COMPS,ioos:station:USF.COMPS:FHP:1,2017-09-01T18:12:00Z,28.1530,-82.8010,10.0,6.43,244.03,7.25,'1111122,1111122,1111122' 
COMPS,ioos:station:USF.COMPS:FHP:1,2017-09-01T18:18:00Z,28.1530,-82.8010,10.0,6.6,242.42,7.83,'1111122,1111122,1111122' 
COMPS,ioos:station:USF.COMPS:FHP:1,2017-09-01T18:24:00Z,28.1530,-82.8010,10.0,6.63,247.06,7.54,'1111122,1111122,1111122' 
COMPS,ioos:station:USF.COMPS:FHP:1,2017-09-01T18:30:00Z,28.1530,-82.8010,10.0,6.63,242.55,7.64,'1111122,1111122,1111122' 
COMPS,ioos:station:USF.COMPS:FHP:1,2017-09-01T18:36:00Z,28.1530,-82.8010,10.0,6.85,242.67,7.93,'1111122,1111122,1111122' 
COMPS,ioos:station:USF.COMPS:FHP:1,2017-09-01T18:42:00Z,28.1530,-82.8010,10.0,6.34,243.73,7.35,'1111122,1111122,1111122' 
COMPS,ioos:station:USF.COMPS:FHP:1,2017-09-01T18:48:00Z,28.1530,-82.8010,10.0,6.06,247.2,7.15,'1111122,1111122,1111122' 
COMPS,ioos:station:USF.COMPS:FHP:1,2017-09-01T18:54:00Z,28.1530,-82.8010,10.0,6.46,247.72,7.74,'1111122,1111122,1111122' 
COMPS,ioos:station:USF.COMPS:FHP:1,2017-09-01T19:00:00Z,28.1530,-82.8010,10.0,6.35,242.76,7.93,'1111122,1111122,1111122' 
COMPS,ioos:station:USF.COMPS:FHP:1,2017-09-01T19:06:00Z,28.1530,-82.8010,10.0,6.03,241.37,7.54,'1111122,1111122,1111122' 
COMPS,ioos:station:USF.COMPS:FHP:1,2017-09-01T19:12:00Z,28.1530,-82.8010,10.0,4.71,241.66,5.87,'1111122,1111122,1111122' 
COMPS,ioos:station:USF.COMPS:FHP:1,2017-09-01T19:18:00Z,28.1530,-82.8010,10.0,3.78,229.83,4.99,'1111122,1111122,1111122' 
COMPS,ioos:station:USF.COMPS:FHP:1,2017-09-01T19:24:00Z,28.1530,-82.8010,10.0,3.72,210.78,4.41,'1111122,1111122,1111122' 
COMPS,ioos:station:USF.COMPS:FHP:1,2017-09-01T19:30:00Z,28.1530,-82.8010,10.0,3.36,227.13,4.41,'1111122,1111122,1111122' 